Date,TemperatureHighF,TemperatureAvgF,TemperatureLowF,DewpointHighF,DewpointAvgF,DewpointLowF,HumidityHigh,HumidityAvg,HumidityLow,PressureMaxIn,PressureMinIn,WindSpeedMaxMPH,WindSpeedAvgMPH,GustSpeedMaxMPH,PrecipitationSumIn
2013-10-1,77.0,54.4,42.9,59.0,49.1,42.6,100,85,47,29.89,29.75,0,0,0,0.00
2013-10-2,78.9,62.7,50.8,66.7,58.5,50.7,100,87,61,29.89,29.74,0,0,0,0.00
2013-10-3,81.6,61.4,48.6,60.5,53.8,45.6,99,80,29,30.00,29.88,0,0,0,0.00
2013-10-4,73.7,56.7,46.3,62.8,54.3,45.6,99,92,62,30.00,29.94,0,0,0,0.00
2013-10-5,67.6,60.5,53.2,63.7,59.0,53.1,100,95,81,30.05,29.97,0,0,0,0.00
2013-10-6,62.3,59.0,55.8,61.5,58.0,55.7,100,96,87,30.13,30.03,0,0,0,0.00
2013-10-7,78.0,69.5,62.3,72.8,68.2,61.5,100,95,84,30.04,29.78,0,0,0,0.00
2013-10-8,67.6,58.0,44.3,66.4,51.9,43.2,100,81,50,30.27,29.80,0,0,0,0.00
2013-10-9,63.4,53.9,43.4,49.6,46.3,42.9,98,76,60,30.35,30.27,0,0,0,0.00
2013-10-10,66.3,57.3,45.0,58.8,54.3,43.3,96,89,75,30.27,30.06,0,0,0,0.00
2013-10-11,66.8,59.5,50.3,60.9,57.1,48.9,98,91,79,30.06,30.00,0,0,0,0.00
2013-10-12,64.4,58.0,50.2,59.3,54.8,48.9,97,88,82,30.29,30.04,0,0,0,0.00
2013-10-13,62.2,52.1,36.8,50.6,46.2,35.4,97,81,61,30.35,30.26,0,0,0,0.00
2013-10-14,67.1,47.8,32.3,52.8,42.8,31.7,98,84,54,30.33,30.18,0,0,0,0.00
2013-10-15,69.9,53.2,39.2,55.3,47.7,38.3,98,83,52,30.20,30.09,0,0,0,0.00
2013-10-16,61.2,56.4,48.9,59.5,55.7,48.4,100,97,94,30.09,29.82,0,0,0,0.00
2013-10-17,70.6,61.6,55.9,64.4,60.1,55.9,100,95,80,29.84,29.68,0,0,0,0.00
2013-10-18,71.8,61.8,44.0,63.9,54.6,41.8,100,79,47,29.85,29.57,0,0,0,0.00
2013-10-19,67.5,53.0,37.3,53.7,45.3,36.1,96,77,47,29.93,29.70,0,0,0,0.00
2013-10-20,65.7,55.3,36.5,58.0,43.3,32.2,98,68,36,29.96,29.63,0,0,0,0.00
2013-10-21,66.7,51.2,33.1,48.4,41.9,30.8,94,72,42,30.06,29.95,0,0,0,0.00
2013-10-22,68.9,56.8,44.2,56.6,51.5,42.4,98,83,62,29.95,29.64,0,0,0,0.00
2013-10-23,53.4,45.1,33.9,44.1,40.4,32.9,98,84,60,29.73,29.50,0,0,0,0.00
2013-10-24,54.3,46.4,37.3,42.4,34.5,27.8,99,66,40,29.83,29.55,0,0,0,0.00
2013-10-25,55.0,42.4,28.6,37.8,31.9,25.4,90,67,46,30.10,29.83,0,0,0,0.00
2013-10-26,58.3,44.0,26.6,44.7,35.0,24.7,95,72,51,30.10,29.81,0,0,0,0.00
2013-10-27,61.6,50.3,32.5,44.6,36.9,28.0,84,61,43,30.00,29.75,0,0,0,0.00
2013-10-28,59.7,45.2,27.4,43.9,34.7,25.2,93,68,44,30.26,29.99,0,0,0,0.00
2013-10-29,56.5,41.6,29.0,39.1,33.6,25.5,94,74,48,30.34,30.25,0,0,0,0.00
2013-10-30,55.3,42.9,32.8,49.9,40.7,31.6,98,92,82,30.30,30.12,0,0,0,0.00
2013-10-31,66.3,54.5,35.2,62.5,51.6,34.7,99,90,76,30.17,29.78,0,0,0,0.00